CRYOSAT 2 (36508 NORAD) Tracking and Keplerian Element Data

This shows tracking and keplerian element data for the satellite.

Feedback or suggestion? Click here.




ElementValue
Catalog36508
NameCRYOSAT 2
Epoch Orbit43915
Epoch Day202.81769367
Epoch Year2018
RAAN299.0037
Inclination92.0354
Eccentricity0.0009547
Argument of Perigee69.7162
Mean Anonmoly290.507
Mean Motion14.52171788
Decay Rate-5E-08
L11 36508U 10013A 18202.81769367 -.00000005 00000-0 -20631-5 0 9991
L22 36508 92.0354 299.0037 0009547 69.7162 290.5070 14.52171788439152

Live tracking and technical data element details for CRYOSAT 2 (NORAD 36508). CRYOSAT 2 can be tracked NOW for your location showing map with azimuth and elevation plus other details from your city location.

Track the satellite on the map from your city or location and see movement details for azimuth, elevation, latitude, longitude, range, height, and movement on the map or in text.







IsCatalogInMostPopularTable: catalog: 36508, numindb: 42
Update: records affected: 1



GetName: 36508 CRYOSAT 2

Hit Count: updated at: Mon, 23 Jul 2018 07:53:47 GMT